Latest Coastal Weather Observations for Esperance Harbour

IDW60701

Issued at 4:22 am WST Friday 27 May 2016 (issued every 10 minutes, with the page automatically refreshed every 10 minutes)

About coastal observations | Map of coastal stations | Coastal observations for WA | Marine services | Other Formats
Station Details ID: 109504 Name: ESPERANCE NTC AWS Lat: -33.87 Lon: 121.90 Height: 0.0 m
Data from the previous 72 hours. | See also: Recent months for locations in Western Australia
Date/Time
WST
Temp

°C
Wind Pressure Rain
since 9am
mm
Weather Cloud Vis
km
Sea
Height
m
Swell
Dir
 
Speed
knots
Gust
knots
hPa Trend Height
m
Period
s
Dir
27/04:00am 11.0 - - - 1021.3 - - - - - - - - -
27/03:30am 11.1 - - - 1021.3 - - - - - - - - -
27/03:00am 11.7 - - - 1021.7 - - - - - - - - -
27/02:30am 12.0 - - - 1021.6 - - - - - - - - -
27/02:00am 11.7 - - - 1021.4 - - - - - - - - -
27/01:30am 12.1 - - - 1021.2 - - - - - - - - -
27/01:00am 12.2 - - - 1021.1 - - - - - - - - -
27/12:30am 12.3 - - - 1021.1 - - - - - - - - -
27/12:00am 12.4 - - - 1021.0 - - - - - - - - -
 
Date/Time
WST
Temp

°C
Wind Pressure Rain
since 9am
mm
Weather Cloud Vis
km
Sea
Height
m
Swell
Dir
 
Speed
knots
Gust
knots
hPa Trend Height
m
Period
s
Dir
26/11:30pm 12.8 - - - 1020.7 - - - - - - - - -
26/11:00pm 13.4 - - - 1020.7 - - - - - - - - -
26/10:30pm 13.6 - - - 1020.3 - - - - - - - - -
26/10:00pm 16.5 - - - 1020.0 - - - - - - - - -
26/09:30pm 15.6 - - - 1020.0 - - - - - - - - -
26/09:00pm 15.4 - - - 1020.0 - - - - - - - - -
26/08:30pm 15.7 - - - 1020.0 - - - - - - - - -
26/08:00pm 15.9 - - - 1020.0 - - - - - - - - -
26/07:30pm 15.2 - - - 1019.4 - - - - - - - - -
26/07:00pm 15.5 - - - 1019.0 - - - - - - - - -
26/06:30pm 15.6 - - - 1018.9 - - - - - - - - -
26/06:00pm 16.2 - - - 1018.3 - - - - - - - - -
26/05:30pm 15.8 - - - 1018.0 - - - - - - - - -
26/05:00pm 15.6 - - - 1017.5 - - - - - - - - -
26/04:30pm 15.8 - - - 1017.0 - - - - - - - - -
26/04:00pm 16.0 - - - 1016.9 - - - - - - - - -
26/03:30pm 15.7 - - - 1016.4 - - - - - - - - -
26/03:00pm 15.1 - - - 1016.3 - - - - - - - - -
26/02:30pm 16.0 - - - 1015.5 - - - - - - - - -
26/02:00pm 17.6 - - - 1015.1 - - - - - - - - -
26/01:30pm 17.5 - - - 1014.9 - - - - - - - - -
26/01:00pm 17.3 - - - 1014.1 - - - - - - - - -
26/12:30pm 16.9 - - - 1014.1 - - - - - - - - -
26/12:00pm 16.5 - - - 1013.8 - - - - - - - - -
26/11:30am 16.2 - - - 1013.6 - - - - - - - - -
26/11:00am 16.1 - - - 1013.8 - - - - - - - - -
26/10:30am 16.5 - - - 1013.6 - - - - - - - - -
26/10:00am 16.0 - - - 1013.4 - - - - - - - - -
26/09:30am 15.5 - - - 1013.3 - - - - - - - - -
26/09:00am 14.6 - - - 1013.1 - - - - - - - - -
26/08:30am 14.1 - - - 1012.9 - - - - - - - - -
26/08:00am 12.9 - - - 1012.3 - - - - - - - - -
26/07:30am 12.0 - - - 1011.9 - - - - - - - - -
26/07:00am 11.5 - - - 1011.7 - - - - - - - - -
26/06:30am 11.5 - - - 1011.3 - - - - - - - - -
26/06:00am 11.7 - - - 1011.2 - - - - - - - - -
26/05:30am 11.4 - - - 1011.3 - - - - - - - - -
26/05:00am 11.3 - - - 1010.8 - - - - - - - - -
26/04:30am 11.5 - - - 1010.4 - - - - - - - - -
26/04:00am 11.6 - - - 1010.5 - - - - - - - - -
26/03:30am 11.7 - - - 1010.4 - - - - - - - - -
26/03:00am 11.7 - - - 1010.1 - - - - - - - - -
26/02:30am 12.0 - - - 1010.1 - - - - - - - - -
26/02:00am 11.9 - - - 1010.3 - - - - - - - - -
26/01:30am 12.0 - - - 1010.5 - - - - - - - - -
26/01:00am 11.9 - - - 1010.5 - - - - - - - - -
26/12:30am 12.3 - - - 1010.4 - - - - - - - - -
26/12:00am 12.3 - - - 1010.5 - - - - - - - - -
 
Date/Time
WST
Temp

°C
Wind Pressure Rain
since 9am
mm
Weather Cloud Vis
km
Sea
Height
m
Swell
Dir
 
Speed
knots
Gust
knots
hPa Trend Height
m
Period
s
Dir
25/11:30pm 12.6 - - - 1010.8 - - - - - - - - -
25/11:00pm 13.1 - - - 1010.8 - - - - - - - - -
25/10:30pm 13.1 - - - 1011.0 - - - - - - - - -
25/10:00pm 13.4 - - - 1011.2 - - - - - - - - -
25/09:30pm 14.0 - - - 1011.2 - - - - - - - - -
25/09:00pm 14.6 - - - 1011.2 - - - - - - - - -
25/08:30pm 14.8 - - - 1011.2 - - - - - - - - -
25/08:00pm 14.9 - - - 1011.2 - - - - - - - - -
25/07:30pm 15.1 - - - 1011.2 - - - - - - - - -
25/07:00pm 14.9 - - - 1011.2 - - - - - - - - -
25/06:30pm 14.9 - - - 1011.3 - - - - - - - - -
25/06:00pm 15.0 - - - 1010.9 - - - - - - - - -
25/05:30pm 15.1 - - - 1010.6 - - - - - - - - -
25/05:00pm 15.2 - - - 1010.2 - - - - - - - - -
25/04:30pm 15.9 - - - 1010.0 - - - - - - - - -
25/04:00pm 16.7 - - - 1009.8 - - - - - - - - -
25/03:30pm 16.6 - - - 1009.6 - - - - - - - - -
25/03:00pm 17.1 - - - 1009.5 - - - - - - - - -
25/02:30pm 16.8 - - - 1009.3 - - - - - - - - -
25/02:00pm 16.7 - - - 1009.0 - - - - - - - - -
25/01:30pm 16.7 - - - 1009.0 - - - - - - - - -
25/01:00pm 16.6 - - - 1009.0 - - - - - - - - -
25/12:30pm 16.5 - - - 1009.1 - - - - - - - - -
25/12:00pm 16.4 - - - 1009.3 - - - - - - - - -
25/11:30am 16.0 - - - 1009.8 - - - - - - - - -
25/11:00am 16.3 - - - 1009.9 - - - - - - - - -
25/10:30am 15.5 - - - 1010.0 - - - - - - - - -
25/10:00am 14.8 - - - 1010.1 - - - - - - - - -
25/09:30am 14.2 - - - 1010.2 - - - - - - - - -
25/09:00am 13.4 - - - 1010.0 - - - - - - - - -
25/08:30am 12.6 - - - 1010.0 - - - - - - - - -
25/08:00am 11.5 - - - 1009.7 - - - - - - - - -
25/07:30am 11.2 - - - 1009.6 - - - - - - - - -
25/07:00am 11.2 - - - 1009.4 - - - - - - - - -
25/06:30am 11.8 - - - 1009.2 - - - - - - - - -
25/06:00am 12.3 - - - 1008.9 - - - - - - - - -
25/05:30am 12.5 - - - 1008.7 - - - - - - - - -
25/05:00am 12.6 - - - 1008.6 - - - - - - - - -
25/04:30am 12.6 - - - 1008.4 - - - - - - - - -
25/04:00am 12.6 - - - 1008.2 - - - - - - - - -
25/03:30am 12.4 - - - 1008.1 - - - - - - - - -
25/03:00am 12.4 - - - 1008.2 - - - - - - - - -
25/02:30am 12.4 - - - 1008.2 - - - - - - - - -
25/02:00am 12.7 - - - 1008.3 - - - - - - - - -
25/01:30am 12.9 - - - 1008.1 - - - - - - - - -
25/01:00am 12.6 - - - 1008.0 - - - - - - - - -
25/12:30am 12.7 - - - 1008.3 - - - - - - - - -
25/12:00am 13.1 - - - 1008.7 - - - - - - - - -
 
Date/Time
WST
Temp

°C
Wind Pressure Rain
since 9am
mm
Weather Cloud Vis
km
Sea
Height
m
Swell
Dir
 
Speed
knots
Gust
knots
hPa Trend Height
m
Period
s
Dir
24/11:30pm 13.5 - - - 1008.7 - - - - - - - - -
24/11:00pm 13.1 - - - 1008.7 - - - - - - - - -
24/10:30pm 13.2 - - - 1008.9 - - - - - - - - -
24/10:00pm 13.7 - - - 1008.8 - - - - - - - - -
24/09:30pm 15.3 - - - 1008.8 - - - - - - - - -
24/09:00pm 15.2 - - - 1008.9 - - - - - - - - -
24/08:30pm 15.4 - - - 1008.9 - - - - - - - - -
24/08:00pm 15.2 - - - 1008.6 - - - - - - - - -
24/07:30pm 15.7 - - - 1008.5 - - - - - - - - -
24/07:00pm 15.6 - - - 1008.2 - - - - - - - - -
24/06:30pm 15.1 - - - 1008.0 - - - - - - - - -
24/06:00pm 15.6 - - - 1007.3 - - - - - - - - -
24/05:30pm 15.3 - - - 1007.1 - - - - - - - - -
24/05:00pm 15.7 - - - 1006.5 - - - - - - - - -
24/04:30pm 17.1 - - - 1005.9 - - - - - - - - -
24/04:00pm 17.4 - - - 1005.5 - - - - - - - - -
24/03:30pm 17.7 - - - 1005.0 - - - - - - - - -
24/03:00pm 17.7 - - - 1004.4 - - - - - - - - -
24/02:30pm 17.8 - - - 1003.9 - - - - - - - - -
24/02:00pm 17.7 - - - 1003.4 - - - - - - - - -
24/01:30pm 17.8 - - - 1003.1 - - - - - - - - -
24/01:00pm 16.7 - - - 1002.8 - - - - - - - - -
24/12:30pm 16.4 - - - 1002.8 - - - - - - - - -
24/12:00pm 17.8 - - - 1002.6 - - - - - - - - -
24/11:30am 17.7 - - - 1002.2 - - - - - - - - -
24/11:00am 16.6 - - - 1002.3 - - - - - - - - -
24/10:30am 15.7 - - - 1002.0 - - - - - - - - -
24/10:00am 15.6 - - - 1001.7 - - - - - - - - -
24/09:30am 15.3 - - - 1001.4 - - - - - - - - -
24/09:00am 15.0 - - - 1001.2 - - - - - - - - -
24/08:30am 14.4 - - - 1001.6 - - - - - - - - -
24/08:00am 14.5 - - - 1002.1 - - - - - - - - -
24/07:30am 14.2 - - - 1002.6 - - - - - - - - -
24/07:00am 14.3 - - - 1002.8 - - - - - - - - -
24/06:30am 14.0 - - - 1002.5 - - - - - - - - -
24/06:00am 13.7 - - - 1002.9 - - - - - - - - -
24/05:30am 14.5 - - - 1003.4 - - - - - - - - -
24/05:00am 16.9 - - - 1003.5 - - - - - - - - -
24/04:30am 16.8 - - - 1003.8 - - - - - - - - -

Other Formats:

Comma delimited format used in spreadsheet applications
http://www.bom.gov.au/fwo/IDW60701/IDW60701.95648.axf

JavaScript Object Notation format (JSON) in row-major order
http://www.bom.gov.au/fwo/IDW60701/IDW60701.95648.json